Back to Top

Language: 

My Weather Underground Personal Weather Station Historical Data with Graphs...

Delerius Weather Station Historical Data
Daily Summary for February 21, 2017 Units:  English    Metric   Both
« Previous Day
Next Day »
Daily Weekly Monthly Yearly Custom
  High: Low: Average:
Temperature: 54.8 °F 42.9 °F 49.7 °F
Dew Point: 51.0 °F 40.0 °F 45.8 °F
Humidity: 92 % 80 % 86 %
Wind Speed: 22.0 mph 0.0 mph 9.5 mph
Wind Gust: 30.0 mph - -
Wind:- - West
Pressure: 29.98 in 29.55 in -
Precipitation: 0.00 in    
Historical Graphs
 
 
Tabular Data for February 21, 2017
Time Temperature Dew Point Pressure Wind Wind Speed Wind Gust Humidity Rainfall Rate (Hourly) solar Conditions
00:00 47.5 °F 43.2 °F 29.97 in West 7.0 mph 11.0 mph 85 % 0.00 in 0 W/m2
00:05 47.4 °F 43.1 °F 29.97 in WNW 7.0 mph 12.0 mph 85 % 0.00 in 0 W/m2
00:15 47.2 °F 42.9 °F 29.98 in WSW 6.0 mph 10.0 mph 85 % 0.00 in 0 W/m2
00:20 47.2 °F 42.9 °F 29.97 in WSW 5.0 mph 5.0 mph 85 % 0.00 in 0 W/m2
00:25 47.1 °F 42.8 °F 29.97 in WSW 6.0 mph 7.0 mph 85 % 0.00 in 0 W/m2
00:30 47.1 °F 42.8 °F 29.98 in West 5.0 mph 5.0 mph 85 % 0.00 in 0 W/m2
00:35 47.0 °F 42.7 °F 29.98 in West 5.0 mph 6.0 mph 85 % 0.00 in 0 W/m2
00:40 46.9 °F 42.6 °F 29.98 in West 7.0 mph 7.0 mph 85 % 0.00 in 0 W/m2
00:50 47.0 °F 42.4 °F 29.98 in West 8.0 mph 8.0 mph 84 % 0.00 in 0 W/m2
01:00 47.0 °F 42.4 °F 29.98 in WNW 6.0 mph 9.0 mph 84 % 0.00 in 0 W/m2
01:05 47.0 °F 42.4 °F 29.98 in West 8.0 mph 16.0 mph 84 % 0.00 in 0 W/m2
01:10 46.9 °F 42.3 °F 29.97 in West 7.0 mph 16.0 mph 84 % 0.00 in 0 W/m2
01:15 46.9 °F 42.3 °F 29.97 in West 6.0 mph 16.0 mph 84 % 0.00 in 0 W/m2
01:20 46.8 °F 42.2 °F 29.97 in West 6.0 mph 6.0 mph 84 % 0.00 in 0 W/m2
01:25 46.8 °F 42.5 °F 29.97 in West 6.0 mph 16.0 mph 85 % 0.00 in 0 W/m2
01:30 46.7 °F 42.4 °F 29.97 in WNW 6.0 mph 6.0 mph 85 % 0.00 in 0 W/m2
01:40 46.5 °F 42.2 °F 29.97 in West 5.0 mph 16.0 mph 85 % 0.00 in 0 W/m2
01:45 46.5 °F 42.5 °F 29.96 in West 7.0 mph 16.0 mph 86 % 0.00 in 0 W/m2
01:50 46.4 °F 42.4 °F 29.96 in West 8.0 mph 8.0 mph 86 % 0.00 in 0 W/m2
01:55 46.4 °F 42.4 °F 29.96 in West 7.0 mph 9.0 mph 86 % 0.00 in 0 W/m2
02:00 46.3 °F 42.6 °F 29.97 in West 8.0 mph 16.0 mph 87 % 0.00 in 0 W/m2
02:05 46.3 °F 42.6 °F 29.97 in WNW 8.0 mph 16.0 mph 87 % 0.00 in 0 W/m2
02:10 46.3 °F 42.6 °F 29.97 in WNW 7.0 mph 16.0 mph 87 % 0.00 in 0 W/m2
02:20 46.3 °F 42.6 °F 29.97 in NW 6.0 mph 6.0 mph 87 % 0.00 in 0 W/m2
02:25 46.3 °F 42.6 °F 29.97 in West 4.0 mph 7.0 mph 87 % 0.00 in 0 W/m2
02:30 46.3 °F 42.6 °F 29.97 in West 4.0 mph 16.0 mph 87 % 0.00 in 0 W/m2
02:35 46.3 °F 42.6 °F 29.97 in WNW 3.0 mph 16.0 mph 87 % 0.00 in 0 W/m2
02:40 46.3 °F 42.6 °F 29.97 in West 4.0 mph 4.0 mph 87 % 0.00 in 0 W/m2
02:45 46.3 °F 42.6 °F 29.96 in WNW 4.0 mph 16.0 mph 87 % 0.00 in 0 W/m2
02:50 46.3 °F 42.6 °F 29.96 in WNW 3.0 mph 16.0 mph 87 % 0.00 in 0 W/m2
02:55 46.3 °F 42.6 °F 29.96 in WNW 3.0 mph 16.0 mph 87 % 0.00 in 0 W/m2
03:05 46.2 °F 42.2 °F 29.96 in NW 3.0 mph 16.0 mph 86 % 0.00 in 0 W/m2
03:15 46.0 °F 42.0 °F 29.96 in WNW 2.0 mph 5.0 mph 86 % 0.00 in 0 W/m2
03:20 45.9 °F 42.2 °F 29.96 in WNW 3.0 mph 16.0 mph 87 % 0.00 in 0 W/m2
03:25 45.8 °F 42.2 °F 29.96 in WNW 4.0 mph 16.0 mph 87 % 0.00 in 0 W/m2
03:30 45.9 °F 42.2 °F 29.96 in WNW 5.0 mph 16.0 mph 87 % 0.00 in 0 W/m2
03:35 45.9 °F 42.5 °F 29.96 in WNW 4.0 mph 16.0 mph 88 % 0.00 in 0 W/m2
03:40 45.8 °F 42.2 °F 29.96 in WNW 4.0 mph 4.0 mph 87 % 0.00 in 0 W/m2
03:45 45.7 °F 42.1 °F 29.96 in WNW 4.0 mph 16.0 mph 87 % 0.00 in 0 W/m2
03:50 45.6 °F 42.0 °F 29.96 in WNW 5.0 mph 5.0 mph 87 % 0.00 in 0 W/m2
04:00 45.5 °F 42.2 °F 29.95 in NW 7.0 mph 7.0 mph 88 % 0.00 in 0 W/m2
04:05 45.4 °F 42.1 °F 29.95 in WNW 7.0 mph 10.0 mph 88 % 0.00 in 0 W/m2
04:10 45.4 °F 42.1 °F 29.95 in WNW 8.0 mph 16.0 mph 88 % 0.00 in 0 W/m2
04:15 45.4 °F 42.1 °F 29.95 in WNW 9.0 mph 16.0 mph 88 % 0.00 in 0 W/m2
04:25 45.3 °F 42.0 °F 29.94 in WNW 9.0 mph 16.0 mph 88 % 0.00 in 0 W/m2
04:30 45.3 °F 42.0 °F 29.95 in WNW 7.0 mph 7.0 mph 88 % 0.00 in 0 W/m2
04:40 45.1 °F 41.8 °F 29.96 in NW 5.0 mph 5.0 mph 88 % 0.00 in 0 W/m2
04:45 45.0 °F 41.7 °F 29.95 in NW 5.0 mph 16.0 mph 88 % 0.00 in 0 W/m2
04:50 44.9 °F 41.6 °F 29.95 in WNW 5.0 mph 16.0 mph 88 % 0.00 in 0 W/m2
04:55 44.9 °F 41.6 °F 29.96 in WNW 6.0 mph 16.0 mph 88 % 0.00 in 0 W/m2
05:00 44.8 °F 41.5 °F 29.96 in WNW 7.0 mph 16.0 mph 88 % 0.00 in 0 W/m2
05:05 44.8 °F 41.5 °F 29.96 in WNW 8.0 mph 16.0 mph 88 % 0.00 in 0 W/m2
05:10 44.8 °F 41.8 °F 29.96 in WNW 8.0 mph 16.0 mph 89 % 0.00 in 0 W/m2
05:15 44.9 °F 41.9 °F 29.95 in West 9.0 mph 16.0 mph 89 % 0.00 in 0 W/m2
05:25 44.7 °F 41.7 °F 29.94 in West 11.0 mph 16.0 mph 89 % 0.00 in 0 W/m2
05:30 44.7 °F 41.7 °F 29.94 in West 11.0 mph 11.0 mph 89 % 0.00 in 0 W/m2
05:35 44.8 °F 41.8 °F 29.95 in West 12.0 mph 14.0 mph 89 % 0.00 in 0 W/m2
05:40 44.8 °F 41.5 °F 29.95 in West 11.0 mph 16.0 mph 88 % 0.00 in 0 W/m2
05:45 44.8 °F 41.5 °F 29.95 in WNW 10.0 mph 16.0 mph 88 % 0.00 in 0 W/m2
05:50 44.8 °F 41.5 °F 29.96 in WNW 11.0 mph 16.0 mph 88 % 0.00 in 0 W/m2
05:55 44.8 °F 41.2 °F 29.96 in WNW 11.0 mph 16.0 mph 87 % 0.00 in 0 W/m2
06:05 44.7 °F 41.1 °F 29.96 in West 10.0 mph 16.0 mph 87 % 0.00 in 0 W/m2
06:15 44.7 °F 41.1 °F 29.95 in West 12.0 mph 12.0 mph 87 % 0.00 in 0 W/m2
06:20 44.6 °F 41.0 °F 29.95 in West 11.0 mph 16.0 mph 87 % 0.00 in 0 W/m2
06:25 44.6 °F 41.0 °F 29.95 in West 11.0 mph 16.0 mph 87 % 0.00 in 0 W/m2
06:30 44.4 °F 40.8 °F 29.95 in West 10.0 mph 10.0 mph 87 % 0.00 in 0 W/m2
06:35 44.3 °F 40.7 °F 29.96 in WNW 9.0 mph 16.0 mph 87 % 0.00 in 0 W/m2
06:40 44.2 °F 40.6 °F 29.96 in West 8.0 mph 8.0 mph 87 % 0.00 in 0 W/m2
06:50 43.9 °F 40.6 °F 29.96 in West 6.0 mph 6.0 mph 88 % 0.00 in 0 W/m2
07:00 43.7 °F 40.4 °F 29.97 in NW 5.0 mph 16.0 mph 88 % 0.00 in 0 W/m2
07:05 43.6 °F 40.3 °F 29.97 in WNW 4.0 mph 16.0 mph 88 % 0.00 in 0 W/m2
07:15 43.4 °F 40.4 °F 29.97 in WNW 4.0 mph 16.0 mph 89 % 0.00 in 5 W/m2
07:20 43.2 °F 40.2 °F 29.97 in WNW 6.0 mph 16.0 mph 89 % 0.00 in 9 W/m2
07:25 43.1 °F 40.1 °F 29.97 in WNW 7.0 mph 16.0 mph 89 % 0.00 in 14 W/m2
07:30 43.0 °F 40.0 °F 29.97 in WNW 7.0 mph 7.0 mph 89 % 0.00 in 18 W/m2
07:35 42.9 °F 40.2 °F 29.97 in WNW 6.0 mph 16.0 mph 90 % 0.00 in 23 W/m2
07:45 42.9 °F 40.2 °F 29.97 in WNW 5.0 mph 16.0 mph 90 % 0.00 in 37 W/m2
07:50 42.9 °F 40.2 °F 29.97 in NW 3.0 mph 3.0 mph 90 % 0.00 in 44 W/m2
07:55 42.9 °F 40.2 °F 29.97 in NW 1.0 mph 16.0 mph 90 % 0.00 in 60 W/m2
08:00 43.0 °F 40.3 °F 29.97 in Calm   16.0 mph 90 % 0.00 in 58 W/m2
08:05 43.1 °F 40.4 °F 29.96 in Calm   16.0 mph 90 % 0.00 in 67 W/m2
08:10 43.3 °F 40.6 °F 29.97 in Calm   16.0 mph 90 % 0.00 in 70 W/m2
08:15 43.4 °F 40.7 °F 29.97 in Calm   16.0 mph 90 % 0.00 in 84 W/m2
08:25 43.8 °F 41.1 °F 29.97 in Calm   16.0 mph 90 % 0.00 in 83 W/m2
08:35 44.0 °F 41.0 °F 29.97 in South 1.0 mph 16.0 mph 89 % 0.00 in 105 W/m2
08:40 44.2 °F 41.2 °F 29.97 in SW 1.0 mph 16.0 mph 89 % 0.00 in 107 W/m2
08:45 44.4 °F 41.4 °F 29.97 in WSW 3.0 mph 16.0 mph 89 % 0.00 in 155 W/m2
08:50 44.8 °F 41.8 °F 29.97 in West 5.0 mph 5.0 mph 89 % 0.00 in 142 W/m2
09:00 45.3 °F 42.0 °F 29.97 in West 4.0 mph 16.0 mph 88 % 0.00 in 127 W/m2
09:05 45.5 °F 42.2 °F 29.97 in West 4.0 mph 16.0 mph 88 % 0.00 in 167 W/m2
09:15 46.0 °F 42.3 °F 29.97 in WNW 5.0 mph 16.0 mph 87 % 0.00 in 192 W/m2
09:20 46.3 °F 42.6 °F 29.96 in WSW 8.0 mph 8.0 mph 87 % 0.00 in 213 W/m2
09:25 46.6 °F 42.6 °F 29.96 in WNW 8.0 mph 16.0 mph 86 % 0.00 in 262 W/m2
09:35 47.3 °F 43.0 °F 29.96 in West 9.0 mph 16.0 mph 85 % 0.00 in 258 W/m2
09:40 47.5 °F 42.9 °F 29.96 in West 10.0 mph 10.0 mph 84 % 0.00 in 269 W/m2
09:45 47.7 °F 43.1 °F 29.96 in West 10.0 mph 16.0 mph 84 % 0.00 in 258 W/m2
09:50 48.0 °F 43.4 °F 29.95 in WNW 10.0 mph 16.0 mph 84 % 0.00 in 306 W/m2
10:00 48.6 °F 43.7 °F 29.95 in West 8.0 mph 8.0 mph 83 % 0.00 in 253 W/m2
10:10 48.8 °F 43.5 °F 29.95 in WSW 9.0 mph 9.0 mph 82 % 0.00 in 216 W/m2
10:15 48.8 °F 43.2 °F 29.95 in WNW 10.0 mph 16.0 mph 81 % 0.00 in 237 W/m2
10:20 48.8 °F 43.2 °F 29.95 in WSW 12.0 mph 12.0 mph 81 % 0.00 in 209 W/m2
10:25 48.8 °F 43.2 °F 29.95 in WNW 12.0 mph 16.0 mph 81 % 0.00 in 262 W/m2
10:30 48.8 °F 43.2 °F 29.95 in West 10.0 mph 10.0 mph 81 % 0.00 in 227 W/m2
10:35 48.9 °F 43.3 °F 29.95 in West 9.0 mph 11.0 mph 81 % 0.00 in 236 W/m2
10:40 49.1 °F 43.8 °F 29.95 in West 9.0 mph 16.0 mph 82 % 0.00 in 267 W/m2
10:50 49.3 °F 43.7 °F 29.94 in West 9.0 mph 16.0 mph 81 % 0.00 in 246 W/m2
10:55 49.5 °F 43.9 °F 29.94 in WSW 9.0 mph 16.0 mph 81 % 0.00 in 320 W/m2
11:00 49.7 °F 44.1 °F 29.95 in NW 10.0 mph 10.0 mph 81 % 0.00 in 313 W/m2
11:05 50.0 °F 44.4 °F 29.94 in WSW 10.0 mph 13.0 mph 81 % 0.00 in 299 W/m2
11:10 50.2 °F 44.6 °F 29.94 in WNW 10.0 mph 16.0 mph 81 % 0.00 in 223 W/m2
11:15 50.4 °F 44.8 °F 29.94 in West 8.0 mph 16.0 mph 81 % 0.00 in 221 W/m2
11:20 50.5 °F 44.9 °F 29.94 in NW 8.0 mph 8.0 mph 81 % 0.00 in 306 W/m2
11:30 50.9 °F 44.9 °F 29.93 in WSW 8.0 mph 8.0 mph 80 % 0.00 in 188 W/m2
11:35 51.0 °F 45.4 °F 29.93 in West 7.0 mph 11.0 mph 81 % 0.00 in 172 W/m2
11:40 51.2 °F 45.2 °F 29.93 in West 7.0 mph 16.0 mph 80 % 0.00 in 188 W/m2
11:50 51.3 °F 45.7 °F 29.92 in SW 10.0 mph 10.0 mph 81 % 0.00 in 214 W/m2
11:55 51.4 °F 45.8 °F 29.93 in SW 7.0 mph 16.0 mph 81 % 0.00 in 163 W/m2
12:00 51.4 °F 45.8 °F 29.93 in SW 7.0 mph 7.0 mph 81 % 0.00 in 162 W/m2
12:05 51.5 °F 45.9 °F 29.92 in West 7.0 mph 16.0 mph 81 % 0.00 in 169 W/m2
12:15 51.6 °F 46.0 °F 29.91 in SW 7.0 mph 16.0 mph 81 % 0.00 in 163 W/m2
12:20 51.5 °F 45.9 °F 29.91 in WSW 7.0 mph 7.0 mph 81 % 0.00 in 149 W/m2
12:25 51.4 °F 45.8 °F 29.90 in SW 8.0 mph 8.0 mph 81 % 0.00 in 137 W/m2
12:30 51.3 °F 45.7 °F 29.90 in SW 9.0 mph 16.0 mph 81 % 0.00 in 120 W/m2
12:35 51.3 °F 46.0 °F 29.89 in SSW 8.0 mph 16.0 mph 82 % 0.00 in 123 W/m2
12:40 51.3 °F 46.0 °F 29.89 in SSW 7.0 mph 7.0 mph 82 % 0.00 in 116 W/m2
12:45 51.4 °F 46.4 °F 29.88 in SW 6.0 mph 16.0 mph 83 % 0.00 in 104 W/m2
12:55 51.5 °F 46.5 °F 29.88 in SW 7.0 mph 16.0 mph 83 % 0.00 in 98 W/m2
13:05 51.6 °F 46.6 °F 29.87 in WSW 8.0 mph 16.0 mph 83 % 0.00 in 88 W/m2
13:10 51.7 °F 46.7 °F 29.87 in SW 10.0 mph 10.0 mph 83 % 0.00 in 86 W/m2
13:15 51.8 °F 46.8 °F 29.87 in West 9.0 mph 16.0 mph 83 % 0.00 in 81 W/m2
13:20 51.8 °F 46.8 °F 29.86 in WSW 8.0 mph 16.0 mph 83 % 0.00 in 84 W/m2
13:25 51.8 °F 47.1 °F 29.86 in WSW 9.0 mph 16.0 mph 84 % 0.00 in 86 W/m2
13:30 51.8 °F 47.1 °F 29.85 in SSW 10.0 mph 10.0 mph 84 % 0.00 in 83 W/m2
13:35 51.8 °F 47.4 °F 29.85 in WSW 9.0 mph 11.0 mph 85 % 0.00 in 74 W/m2
13:40 51.8 °F 47.4 °F 29.84 in SW 10.0 mph 16.0 mph 85 % 0.00 in 77 W/m2
13:50 51.9 °F 47.8 °F 29.83 in WSW 10.0 mph 10.0 mph 86 % 0.00 in 91 W/m2
13:55 52.0 °F 47.9 °F 29.83 in SW 10.0 mph 16.0 mph 86 % 0.00 in 105 W/m2
14:00 52.1 °F 48.3 °F 29.83 in SW 11.0 mph 11.0 mph 87 % 0.00 in 141 W/m2
14:10 52.6 °F 48.8 °F 29.82 in SW 10.0 mph 10.0 mph 87 % 0.00 in 142 W/m2
14:15 52.9 °F 48.8 °F 29.82 in WSW 9.0 mph 16.0 mph 86 % 0.00 in 127 W/m2
14:20 53.1 °F 49.0 °F 29.82 in WSW 9.0 mph 16.0 mph 86 % 0.00 in 128 W/m2
14:30 53.6 °F 49.5 °F 29.81 in SSW 9.0 mph 16.0 mph 86 % 0.00 in 141 W/m2
14:35 54.0 °F 49.6 °F 29.81 in SW 10.0 mph 16.0 mph 85 % 0.00 in 160 W/m2
14:40 54.3 °F 49.9 °F 29.81 in SW 10.0 mph 10.0 mph 85 % 0.00 in 141 W/m2
14:45 54.6 °F 49.9 °F 29.81 in West 11.0 mph 11.0 mph 84 % 0.00 in 127 W/m2
14:50 54.7 °F 49.6 °F 29.81 in WSW 13.0 mph 13.0 mph 83 % 0.00 in 109 W/m2
14:55 54.8 °F 49.7 °F 29.81 in SW 12.0 mph 16.0 mph 83 % 0.00 in 113 W/m2
15:00 54.8 °F 50.1 °F 29.81 in WSW 11.0 mph 16.0 mph 84 % 0.00 in 128 W/m2
15:10 54.6 °F 50.2 °F 29.80 in WSW 12.0 mph 16.0 mph 85 % 0.00 in 202 W/m2
15:15 54.5 °F 50.4 °F 29.79 in SW 12.0 mph 16.0 mph 86 % 0.00 in 105 W/m2
15:20 54.4 °F 50.3 °F 29.78 in SW 10.0 mph 16.0 mph 86 % 0.00 in 156 W/m2
15:25 54.4 °F 50.6 °F 29.78 in SW 9.0 mph 16.0 mph 87 % 0.00 in 181 W/m2
15:30 54.4 °F 50.6 °F 29.78 in SW 11.0 mph 11.0 mph 87 % 0.00 in 171 W/m2
15:35 54.5 °F 51.0 °F 29.78 in WSW 10.0 mph 16.0 mph 88 % 0.00 in 167 W/m2
15:40 54.3 °F 50.8 °F 29.77 in SW 8.0 mph 16.0 mph 88 % 0.00 in 111 W/m2
15:50 54.2 °F 50.7 °F 29.77 in SW 8.0 mph 16.0 mph 88 % 0.00 in 146 W/m2
16:00 54.2 °F 50.7 °F 29.76 in SW 8.0 mph 8.0 mph 88 % 0.00 in 77 W/m2
16:05 54.1 °F 50.6 °F 29.76 in SW 8.0 mph 10.0 mph 88 % 0.00 in 69 W/m2
16:10 54.0 °F 50.8 °F 29.75 in SW 8.0 mph 16.0 mph 89 % 0.00 in 81 W/m2
16:15 54.0 °F 50.8 °F 29.75 in WSW 7.0 mph 16.0 mph 89 % 0.00 in 70 W/m2
16:20 53.9 °F 50.7 °F 29.75 in SSW 8.0 mph 16.0 mph 89 % 0.00 in 60 W/m2
16:25 53.7 °F 50.5 °F 29.75 in SW 9.0 mph 16.0 mph 89 % 0.00 in 56 W/m2
16:30 53.6 °F 50.4 °F 29.74 in SW 9.0 mph 16.0 mph 89 % 0.00 in 51 W/m2
16:40 53.5 °F 50.6 °F 29.74 in SW 9.0 mph 9.0 mph 90 % 0.00 in 33 W/m2
16:45 53.5 °F 50.6 °F 29.74 in WSW 9.0 mph 16.0 mph 90 % 0.00 in 26 W/m2
16:50 53.5 °F 50.6 °F 29.74 in SSW 8.0 mph 8.0 mph 90 % 0.00 in 30 W/m2
16:55 53.4 °F 50.5 °F 29.74 in SW 8.0 mph 11.0 mph 90 % 0.00 in 18 W/m2
17:00 53.4 °F 50.5 °F 29.74 in WSW 10.0 mph 16.0 mph 90 % 0.00 in 11 W/m2
17:05 53.3 °F 50.7 °F 29.74 in WSW 12.0 mph 16.0 mph 91 % 0.00 in 5 W/m2
17:10 53.2 °F 50.9 °F 29.74 in WSW 12.0 mph 16.0 mph 92 % 0.00 in 5 W/m2
17:15 53.1 °F 50.8 °F 29.73 in West 10.0 mph 16.0 mph 92 % 0.00 in 0 W/m2
17:25 53.1 °F 50.8 °F 29.73 in WSW 12.0 mph 18.0 mph 92 % 0.00 in 0 W/m2
17:30 53.3 °F 51.0 °F 29.73 in WNW 12.0 mph 12.0 mph 92 % 0.00 in 0 W/m2
17:35 53.5 °F 50.9 °F 29.72 in West 12.0 mph 16.0 mph 91 % 0.00 in 0 W/m2
17:40 53.7 °F 50.8 °F 29.72 in WSW 12.0 mph 24.0 mph 90 % 0.00 in 0 W/m2
17:45 53.8 °F 50.6 °F 29.72 in SW 13.0 mph 24.0 mph 89 % 0.00 in 0 W/m2
17:50 53.9 °F 50.4 °F 29.71 in West 14.0 mph 14.0 mph 88 % 0.00 in 0 W/m2
17:55 53.9 °F 50.4 °F 29.71 in WSW 13.0 mph 25.0 mph 88 % 0.00 in 0 W/m2
18:05 54.0 °F 50.2 °F 29.70 in WSW 14.0 mph 22.0 mph 87 % 0.00 in 0 W/m2
18:10 54.0 °F 50.2 °F 29.70 in West 15.0 mph 24.0 mph 87 % 0.00 in 0 W/m2
18:15 54.0 °F 50.2 °F 29.70 in WSW 17.0 mph 24.0 mph 87 % 0.00 in 0 W/m2
18:20 53.9 °F 50.1 °F 29.70 in WSW 17.0 mph 17.0 mph 87 % 0.00 in 0 W/m2
18:25 53.7 °F 49.9 °F 29.69 in SW 15.0 mph 19.0 mph 87 % 0.00 in 0 W/m2
18:30 53.6 °F 49.8 °F 29.70 in WSW 17.0 mph 21.0 mph 87 % 0.00 in 0 W/m2
18:35 53.5 °F 50.0 °F 29.70 in West 17.0 mph 21.0 mph 88 % 0.00 in 0 W/m2
18:40 53.3 °F 50.1 °F 29.69 in West 16.0 mph 16.0 mph 89 % 0.00 in 0 W/m2
18:45 53.1 °F 49.9 °F 29.69 in SW 15.0 mph 16.0 mph 89 % 0.00 in 0 W/m2
18:55 53.2 °F 50.0 °F 29.68 in SW 15.0 mph 16.0 mph 89 % 0.00 in 0 W/m2
19:00 53.3 °F 49.8 °F 29.68 in WSW 14.0 mph 14.0 mph 88 % 0.00 in 0 W/m2
19:05 53.4 °F 49.9 °F 29.68 in West 14.0 mph 16.0 mph 88 % 0.00 in 0 W/m2
19:10 53.7 °F 49.9 °F 29.68 in WSW 13.0 mph 20.0 mph 87 % 0.00 in 0 W/m2
19:15 53.8 °F 49.7 °F 29.68 in SW 13.0 mph 20.0 mph 86 % 0.00 in 0 W/m2
19:20 54.0 °F 49.6 °F 29.67 in West 15.0 mph 16.0 mph 85 % 0.00 in 0 W/m2
19:25 54.1 °F 49.7 °F 29.67 in SW 16.0 mph 16.0 mph 85 % 0.00 in 0 W/m2
19:35 54.1 °F 49.4 °F 29.67 in SW 15.0 mph 16.0 mph 84 % 0.00 in 0 W/m2
19:40 54.1 °F 49.4 °F 29.67 in WSW 16.0 mph 16.0 mph 84 % 0.00 in 0 W/m2
19:45 54.1 °F 49.4 °F 29.66 in WSW 15.0 mph 19.0 mph 84 % 0.00 in 0 W/m2
19:55 54.0 °F 49.3 °F 29.66 in West 14.0 mph 16.0 mph 84 % 0.00 in 0 W/m2
20:00 54.1 °F 49.4 °F 29.66 in WSW 14.0 mph 14.0 mph 84 % 0.00 in 0 W/m2
20:05 54.1 °F 49.4 °F 29.66 in WSW 16.0 mph 22.0 mph 84 % 0.00 in 0 W/m2
20:10 54.1 °F 49.4 °F 29.66 in WSW 17.0 mph 17.0 mph 84 % 0.00 in 0 W/m2
20:20 53.9 °F 49.2 °F 29.65 in WSW 16.0 mph 21.0 mph 84 % 0.00 in 0 W/m2
20:25 53.8 °F 49.1 °F 29.64 in WSW 17.0 mph 21.0 mph 84 % 0.00 in 0 W/m2
20:30 53.7 °F 49.3 °F 29.64 in West 18.0 mph 19.0 mph 85 % 0.00 in 0 W/m2
20:35 53.7 °F 49.0 °F 29.64 in SW 18.0 mph 19.0 mph 84 % 0.00 in 0 W/m2
20:45 53.8 °F 49.1 °F 29.63 in SSW 20.0 mph 22.0 mph 84 % 0.00 in 0 W/m2
20:50 53.8 °F 49.1 °F 29.63 in West 19.0 mph 19.0 mph 84 % 0.00 in 0 W/m2
20:55 53.8 °F 49.1 °F 29.63 in SW 18.0 mph 26.0 mph 84 % 0.00 in 0 W/m2
21:05 53.7 °F 49.0 °F 29.63 in WSW 18.0 mph 18.0 mph 84 % 0.00 in 0 W/m2
21:10 53.6 °F 49.2 °F 29.63 in West 18.0 mph 18.0 mph 85 % 0.00 in 0 W/m2
21:15 53.4 °F 49.3 °F 29.62 in West 17.0 mph 18.0 mph 86 % 0.00 in 0 W/m2
21:20 53.3 °F 49.5 °F 29.63 in WSW 17.0 mph 20.0 mph 87 % 0.00 in 0 W/m2
21:30 53.1 °F 49.3 °F 29.62 in SW 16.0 mph 16.0 mph 87 % 0.00 in 0 W/m2
21:40 53.1 °F 49.3 °F 29.62 in WSW 14.0 mph 18.0 mph 87 % 0.00 in 0 W/m2
21:50 53.0 °F 49.5 °F 29.62 in West 13.0 mph 13.0 mph 88 % 0.00 in 0 W/m2
21:55 53.1 °F 49.6 °F 29.62 in WSW 12.0 mph 16.0 mph 88 % 0.00 in 0 W/m2
22:00 53.1 °F 49.6 °F 29.61 in WSW 12.0 mph 16.0 mph 88 % 0.00 in 0 W/m2
22:10 53.4 °F 49.6 °F 29.61 in SW 13.0 mph 13.0 mph 87 % 0.00 in 0 W/m2
22:20 53.4 °F 49.6 °F 29.61 in SW 13.0 mph 16.0 mph 87 % 0.00 in 0 W/m2
22:25 53.3 °F 49.5 °F 29.60 in SW 12.0 mph 16.0 mph 87 % 0.00 in 0 W/m2
22:30 53.3 °F 49.8 °F 29.59 in WSW 13.0 mph 13.0 mph 88 % 0.00 in 0 W/m2
22:35 53.3 °F 49.5 °F 29.59 in SW 12.0 mph 15.0 mph 87 % 0.00 in 0 W/m2
22:40 53.3 °F 49.5 °F 29.59 in West 11.0 mph 16.0 mph 87 % 0.00 in 0 W/m2
22:45 53.3 °F 49.5 °F 29.59 in SW 11.0 mph 19.0 mph 87 % 0.00 in 0 W/m2
22:50 53.3 °F 49.5 °F 29.58 in SW 12.0 mph 12.0 mph 87 % 0.00 in 0 W/m2
23:00 53.1 °F 49.6 °F 29.58 in WSW 12.0 mph 19.0 mph 88 % 0.00 in 0 W/m2
23:05 53.0 °F 49.5 °F 29.58 in West 13.0 mph 19.0 mph 88 % 0.00 in 0 W/m2
23:10 52.9 °F 49.4 °F 29.58 in SW 12.0 mph 16.0 mph 88 % 0.00 in 0 W/m2
23:15 52.8 °F 49.3 °F 29.57 in West 13.0 mph 16.0 mph 88 % 0.00 in 0 W/m2
23:20 52.7 °F 49.2 °F 29.57 in West 16.0 mph 16.0 mph 88 % 0.00 in 0 W/m2
23:25 52.6 °F 49.4 °F 29.57 in WNW 18.0 mph 21.0 mph 89 % 0.00 in 0 W/m2
23:30 52.5 °F 49.4 °F 29.55 in WSW 22.0 mph 23.0 mph 89 % 0.00 in 0 W/m2
23:35 52.3 °F 49.2 °F 29.57 in WNW 21.0 mph 24.0 mph 89 % 0.00 in 0 W/m2
23:45 52.3 °F 49.5 °F 29.55 in WNW 21.0 mph 30.0 mph 90 % 0.00 in 0 W/m2
23:55 52.1 °F 49.3 °F 29.56 in WSW 22.0 mph 30.0 mph 90 % 0.00 in 0 W/m2
Delerius-Weather
Compliments of Weather Underground - 2 mb

Data updates at regular intervals.